GW0655 Weather Reports


time (UTC)temp
C
wind
direction
speed
KPH
gust
KPH
rain 1hr
cm
rain 24hr
cm
rain mn
cm
humidity
%
barometer
mb
20260507225551 19 86 4.8 8.0 0.00 0.00 0.00 64 1016.9
20260507225048 19 9 8.0 9.7 0.00 0.00 0.00 65 1017.2
20260507224543 19 350 4.8 4.8 0.00 0.00 0.00 64 1017.2
20260507224040 19 340 6.4 11.3 0.00 0.00 0.00 64 1017.2
20260507223536 20 332 6.4 8.0 0.00 0.00 0.00 63 1017.5
20260507223034 20 0 8.0 9.7 0.00 0.00 0.00 63 1017.9
20260507222531 19 347 3.2 3.2 0.00 0.00 0.00 64 1017.9
20260507222027 19 344 4.8 8.0 0.00 0.00 0.00 65 1017.5
20260507221523 19 331 4.8 8.0 0.00 0.00 0.00 65 1017.5
20260507221020 19 354 4.8 8.0 0.00 0.00 0.00 64 1017.5
20260507220518 20 2 8.0 11.3 0.00 0.00 0.00 63 1017.2
20260507220015 19 357 3.2 3.2 0.00 0.00 0.00 65 1017.5
20260507215511 19 4 6.4 8.0 0.00 0.00 0.00 65 1017.5
20260507215009 19 349 4.8 4.8 0.00 0.00 0.00 65 1017.5
20260507214506 19 319 4.8 4.8 0.00 0.00 0.00 65 1017.2
20260507214001 19 310 4.8 4.8 0.00 0.00 0.00 65 1017.2
20260507213458 19 0 8.0 9.7 0.00 0.00 0.00 64 1017.2
20260507212955 19 4 4.8 4.8 0.00 0.00 0.00 65 1017.5
20260507212450 19 330 6.4 8.0 0.00 0.00 0.00 65 1017.9
20260507211948 19 16 1.6 3.2 0.00 0.00 0.00 65 1017.5
20260507211444 20 53 6.4 8.0 0.00 0.00 0.00 64 1017.9
20260507210941 19 14 8.0 11.3 0.00 0.00 0.00 65 1017.2
20260507210438 19 54 6.4 8.0 0.00 0.00 0.00 66 1017.2
20260507205935 18 339 6.4 8.0 0.00 0.00 0.00 66 1017.2
20260507205432 18 328 6.4 9.7 0.00 0.00 0.00 66 1017.2
20260507204928 18 0 9.7 11.3 0.00 0.00 0.00 67 1017.2
20260507204424 18 358 6.4 8.0 0.00 0.00 0.00 67 1017.5
20260507203922 18 53 4.8 8.0 0.00 0.00 0.00 68 1017.9
20260507203420 18 34 8.0 11.3 0.00 0.00 0.00 67 1018.2
20260507202916 18 21 4.8 8.0 0.00 0.00 0.00 68 1017.9
20260507202413 18 3 9.7 11.3 0.00 0.00 0.00 67 1017.9
20260507201908 19 9 3.2 3.2 0.00 0.00 0.00 69 1018.2
20260507201404 18 341 8.0 9.7 0.00 0.00 0.00 68 1018.2
20260507200901 18 53 1.6 3.2 0.00 0.00 0.00 68 1017.9
20260507200356 18 0 8.0 12.9 0.00 0.00 0.00 69 1017.9
20260507195852 18 26 8.0 12.9 0.00 0.00 0.00 70 1017.9
20260507195350 18 8 9.7 14.5 0.00 0.00 0.00 71 1017.9
20260507194847 18 0 9.7 11.3 0.00 0.00 0.00 73 1018.2
20260507194344 17 26 4.8 8.0 0.00 0.00 0.00 77 1017.9
20260507193840 17 344 8.0 9.7 0.00 0.00 0.00 77 1018.5
20260507193338 17 88 8.0 9.7 0.00 0.00 0.00 78 1018.2
20260507192833 17 37 0.0 1.6 0.00 0.00 0.00 75 1018.2
20260507192330 17 9 4.8 8.0 0.00 0.00 0.00 73 1018.5
20260507191826 17 359 8.0 9.7 0.00 0.00 0.00 71 1018.9
20260507191322 17 39 1.6 1.6 0.00 0.00 0.00 71 1018.5
20260507190820 17 45 1.6 3.2 0.00 0.00 0.00 71 1018.9
20260507190318 17 14 6.4 9.7 0.00 0.00 0.00 71 1018.9
20260507185817 17 344 4.8 9.7 0.00 0.00 0.00 71 1018.9
20260507185313 18 12 3.2 4.8 0.00 0.00 0.00 71 1018.9
20260507184810 18 11 1.6 1.6 0.00 0.00 0.00 69 1018.9
20260507184308 18 341 9.7 11.3 0.00 0.00 0.00 69 1018.9
20260507183805 18 344 8.0 9.7 0.00 0.00 0.00 70 1019.7
20260507183302 18 1 4.8 8.0 0.00 0.00 0.00 71 1019.3
20260507182759 17 3 9.7 14.5 0.00 0.00 0.00 71 1019.7
20260507182254 18 12 9.7 11.3 0.00 0.00 0.00 70 1019.3
20260507181751 18 342 6.4 9.7 0.00 0.00 0.00 70 1018.9
20260507181247 17 7 11.3 14.5 0.00 0.00 0.00 71 1018.9
20260507180744 17 71 9.7 11.3 0.00 0.00 0.00 71 1018.9
20260507180241 17 68 3.2 3.2 0.00 0.00 0.00 72 1018.5
20260507175736 17 45 1.6 3.2 0.00 0.00 0.00 71 1018.9
20260507175234 17 11 8.0 9.7 0.00 0.00 0.00 72 1018.9
20260507174731 17 332 1.6 3.2 0.00 0.00 0.00 74 1019.3
20260507174229 17 315 3.2 3.2 0.00 0.00 0.00 73 1018.9
20260507173726 17 44 1.6 1.6 0.00 0.00 0.00 74 1018.9
20260507173223 16 46 1.6 3.2 0.00 0.00 0.00 74 1018.5
20260507172720 16 341 1.6 1.6 0.00 0.00 0.00 75 1018.9
20260507172217 16 42 0.0 1.6 0.00 0.00 0.00 74 1018.9
20260507171716 16 56 3.2 4.8 0.00 0.00 0.00 75 1019.7
20260507171214 16 346 6.4 8.0 0.00 0.00 0.00 76 1020.3
20260507170711 16 51 3.2 3.2 0.00 0.00 0.00 76 1019.7
20260507170208 16 21 3.2 3.2 0.00 0.00 0.00 77 1020.0
20260507165703 16 25 8.0 9.7 0.00 0.00 0.00 76 1020.0
20260507165200 16 349 4.8 4.8 0.00 0.00 0.00 78 1020.0
20260507164656 16 52 4.8 9.7 0.00 0.00 0.00 80 1020.0
20260507164153 15 5 11.3 14.5 0.00 0.00 0.00 79 1020.0
20260507163650 15 339 9.7 16.1 0.00 0.00 0.00 79 1019.7
20260507163148 16 75 4.8 9.7 0.00 0.00 0.00 80 1020.0
20260507162644 16 6 8.0 9.7 0.00 0.00 0.00 79 1020.3
20260507162140 15 18 4.8 4.8 0.00 0.00 0.00 78 1020.3
20260507161636 16 357 8.0 11.3 0.00 0.00 0.00 78 1020.3
20260507161133 16 1 9.7 11.3 0.00 0.00 0.00 79 1020.3
20260507160630 16 8 12.9 14.5 0.00 0.00 0.00 80 1019.7
20260507160126 16 350 11.3 12.9 0.00 0.00 0.00 81 1019.7
20260507155622 16 341 6.4 8.0 0.00 0.00 0.00 81 1019.7
20260507155119 15 319 4.8 8.0 0.00 0.00 0.00 82 1020.3
20260507154615 15 29 4.8 8.0 0.00 0.00 0.00 82 1020.3
20260507154113 15 334 8.0 9.7 0.00 0.00 0.00 82 1020.7
20260507153609 15 340 6.4 8.0 0.00 0.00 0.00 82 1020.7
20260507153106 15 341 6.4 8.0 0.00 0.00 0.00 82 1020.7
20260507152602 15 30 4.8 4.8 0.00 0.00 0.00 83 1020.7
20260507152058 15 354 6.4 8.0 0.00 0.00 0.00 82 1020.3
20260507151554 15 2 8.0 9.7 0.00 0.00 0.00 83 1020.3
20260507151051 15 4 3.2 4.8 0.00 0.00 0.00 83 1020.7
20260507150549 15 359 4.8 9.7 0.00 0.00 0.00 83 1020.3
20260507150045 15 14 12.9 16.1 0.00 0.00 0.00 83 1020.7
20260507145540 15 7 4.8 8.0 0.00 0.00 0.00 83 1020.7
20260507145038 15 310 4.8 4.8 0.00 0.00 0.00 83 1020.3
20260507144534 15 17 6.4 8.0 0.00 0.00 0.00 82 1020.3
20260507144032 15 20 3.2 3.2 0.00 0.00 0.00 83 1020.0
20260507143529 15 349 6.4 8.0 0.00 0.00 0.00 83 1019.7
20260507143027 15 358 11.3 14.5 0.00 0.00 0.00 83 1020.0
20260507142522 15 64 8.0 11.3 0.00 0.00 0.00 83 1020.3
20260507142019 15 345 6.4 9.7 0.00 0.00 0.00 83 1020.3
20260507141515 15 34 9.7 12.9 0.00 0.00 0.00 83 1019.7
20260507141012 15 28 9.7 12.9 0.00 0.00 0.00 84 1019.7
20260507140509 15 14 16.1 17.7 0.00 0.00 0.00 84 1020.0
20260507140006 15 9 4.8 8.0 0.00 0.00 0.00 84 1019.7
20260507135503 15 17 14.5 16.1 0.00 0.00 0.00 84 1020.0
20260507135000 15 8 11.3 14.5 0.00 0.00 0.00 84 1019.3
20260507134456 15 57 6.4 9.7 0.00 0.00 0.00 84 1019.7
20260507133952 16 19 11.3 12.9 0.00 0.00 0.00 85 1019.7
20260507133448 16 21 8.0 9.7 0.00 0.00 0.00 85 1019.3
20260507132947 16 357 4.8 4.8 0.00 0.00 0.00 85 1018.9
20260507132443 15 18 4.8 4.8 0.00 0.00 0.00 85 1018.9
20260507131939 15 57 3.2 4.8 0.00 0.00 0.00 86 1019.3
20260507131436 15 55 6.4 9.7 0.00 0.00 0.00 86 1018.9
20260507130933 15 309 4.8 8.0 0.00 0.00 0.00 86 1019.7
20260507130431 15 35 8.0 11.3 0.00 0.00 0.00 86 1019.3
20260507125929 15 9 8.0 11.3 0.00 0.00 0.00 86 1019.3
20260507125427 15 8 8.0 11.3 0.00 0.00 0.00 86 1019.3
20260507124924 15 52 6.4 9.7 0.00 0.00 0.00 86 1019.3
20260507124420 15 77 4.8 8.0 0.00 0.00 0.00 87 1019.3
20260507123919 15 347 9.7 11.3 0.00 0.00 0.00 87 1019.3
20260507123418 15 15 9.7 12.9 0.00 0.00 0.00 87 1019.3
20260507122912 15 19 9.7 12.9 0.00 0.00 0.00 87 1018.9
20260507122407 15 42 9.7 12.9 0.00 0.00 0.00 87 1018.9
20260507121904 15 344 6.4 9.7 0.00 0.00 0.00 87 1019.3
20260507121359 15 42 3.2 4.8 0.00 0.00 0.00 88 1018.9
20260507120856 15 358 9.7 11.3 0.00 0.00 0.00 88 1018.5
20260507120352 15 49 3.2 4.8 0.00 0.00 0.00 88 1018.5
20260507115848 15 279 4.8 4.8 0.00 0.00 0.00 88 1018.2
20260507115344 15 353 6.4 8.0 0.00 0.00 0.00 88 1018.5
20260507114840 15 31 6.4 8.0 0.00 0.00 0.00 88 1018.2
20260507114337 15 26 8.0 9.7 0.00 0.00 0.00 88 1018.2
20260507113835 15 357 4.8 4.8 0.00 0.00 0.00 88 1018.5
20260507113332 15 13 3.2 4.8 0.00 0.00 0.00 87 1018.5
20260507112829 15 292 4.8 4.8 0.00 0.00 0.00 87 1018.2
20260507112326 15 10 3.2 4.8 0.00 0.00 0.00 88 1018.2
20260507111824 15 261 6.4 8.0 0.00 0.00 0.00 88 1018.5
20260507111320 15 306 4.8 4.8 0.00 0.00 0.00 87 1018.5
20260507110816 15 2 8.0 11.3 0.00 0.00 0.00 87 1018.2
20260507110313 15 345 1.6 3.2 0.00 0.00 0.00 87 1018.2
20260507105810 15 1 8.0 11.3 0.00 0.00 0.00 87 1018.5
20260507105307 15 45 6.4 8.0 0.00 0.00 0.00 87 1018.5
20260507104804 15 351 6.4 8.0 0.00 0.00 0.00 87 1018.2
20260507104300 15 10 9.7 12.9 0.00 0.00 0.00 87 1018.2
20260507103756 15 350 8.0 9.7 0.00 0.00 0.00 87 1017.9
20260507103252 15 2 8.0 9.7 0.00 0.00 0.00 87 1017.9
20260507102749 15 85 9.7 14.5 0.00 0.00 0.00 87 1017.9
20260507102246 15 4 6.4 9.7 0.00 0.00 0.00 87 1017.9
20260507101742 15 12 11.3 12.9 0.00 0.00 0.00 86 1017.9
20260507101237 15 347 9.7 11.3 0.00 0.00 0.00 86 1017.5
20260507100734 15 352 4.8 4.8 0.00 0.00 0.00 86 1017.9
20260507100233 15 344 8.0 9.7 0.00 0.00 0.00 86 1017.2
20260507095730 15 12 6.4 9.7 0.00 0.00 0.00 86 1017.9
20260507095226 15 19 4.8 4.8 0.00 0.00 0.00 86 1017.9
20260507094723 15 295 4.8 8.0 0.00 0.00 0.00 86 1017.5
20260507094220 15 332 6.4 8.0 0.00 0.00 0.00 86 1017.5
20260507093717 15 24 3.2 4.8 0.00 0.00 0.00 86 1017.5
20260507093216 15 358 9.7 11.3 0.00 0.00 0.00 85 1017.2
20260507092713 15 43 8.0 11.3 0.00 0.00 0.00 85 1017.5
20260507092209 15 15 6.4 8.0 0.00 0.00 0.00 85 1017.2
20260507091705 15 5 6.4 9.7 0.00 0.00 0.00 85 1017.5
20260507091202 15 4 6.4 8.0 0.00 0.00 0.00 85 1017.2
20260507090657 15 336 6.4 8.0 0.00 0.00 0.00 85 1017.2
20260507090155 15 15 6.4 8.0 0.00 0.00 0.00 85 1017.2
20260507085652 16 356 3.2 3.2 0.00 0.00 0.00 85 1017.2
20260507085148 16 349 3.2 3.2 0.00 0.00 0.00 85 1017.5
20260507084646 16 5 3.2 3.2 0.00 0.00 0.00 85 1017.2
20260507084142 16 358 4.8 4.8 0.00 0.00 0.00 84 1017.2
20260507083639 16 340 4.8 4.8 0.00 0.00 0.00 84 1017.5
20260507083136 16 8 6.4 8.0 0.00 0.00 0.00 84 1017.2
20260507082631 16 287 0.0 0.0 0.00 0.00 0.00 85 1017.2
20260507082128 16 341 6.4 8.0 0.00 0.00 0.00 85 1017.2
20260507081625 16 20 1.6 1.6 0.00 0.00 0.00 85 1016.9
20260507081121 16 323 1.6 3.2 0.00 0.00 0.00 85 1016.9
20260507080618 16 333 3.2 3.2 0.00 0.00 0.00 84 1016.5
20260507080114 16 334 1.6 1.6 0.00 0.00 0.00 85 1016.9
20260507075609 16 332 1.6 3.2 0.00 0.00 0.00 85 1016.9
20260507075105 16 334 4.8 4.8 0.00 0.00 0.00 85 1016.5
20260507074603 16 18 3.2 3.2 0.00 0.00 0.00 85 1016.5
20260507074101 16 320 1.6 3.2 0.00 0.00 0.00 85 1016.9
20260507073556 16 353 4.8 4.8 0.00 0.00 0.00 85 1016.5
20260507073053 16 19 1.6 1.6 0.00 0.00 0.00 84 1017.2
20260507072550 16 257 0.0 0.0 0.00 0.00 0.00 84 1017.2
20260507072048 16 331 3.2 3.2 0.00 0.00 0.00 84 1016.9
20260507071545 16 341 4.8 4.8 0.00 0.00 0.00 84 1016.9
20260507071041 16 345 3.2 3.2 0.00 0.00 0.00 84 1016.9
20260507070538 16 327 3.2 3.2 0.00 0.00 0.00 83 1016.9
20260507070035 16 337 4.8 4.8 0.00 0.00 0.00 83 1017.2
20260507065532 16 302 3.2 3.2 0.00 0.00 0.00 83 1017.2
20260507065029 16 343 3.2 3.2 0.00 0.00 0.00 83 1016.9
20260507064527 16 322 1.6 1.6 0.00 0.00 0.00 83 1017.2
20260507064025 16 57 0.0 1.6 0.00 0.00 0.00 83 1017.2
20260507063522 16 324 1.6 1.6 0.00 0.00 0.00 83 1016.9
20260507063020 16 329 1.6 3.2 0.00 0.00 0.00 83 1016.2
20260507062516 16 305 4.8 8.0 0.00 0.00 0.00 82 1016.5
20260507062014 16 43 8.0 9.7 0.00 0.00 0.00 82 1016.9
20260507061511 16 17 3.2 3.2 0.00 0.00 0.00 82 1016.9
20260507061009 16 347 3.2 3.2 0.00 0.00 0.00 82 1016.9
20260507060506 16 338 6.4 8.0 0.00 0.00 0.00 82 1016.9
20260507060003 16 358 6.4 8.0 0.00 0.00 0.00 82 1016.5
20260507055458 16 337 4.8 4.8 0.00 0.00 0.00 81 1016.5
20260507054955 16 2 6.4 8.0 0.00 0.00 0.00 81 1016.5
20260507054450 16 19 3.2 3.2 0.00 0.00 0.00 81 1016.9
20260507053948 16 7 8.0 8.0 0.00 0.00 0.00 80 1016.9
20260507053446 16 358 6.4 8.0 0.00 0.00 0.00 80 1016.9
20260507052944 16 307 1.6 3.2 0.00 0.00 0.00 80 1016.9
20260507052441 16 338 6.4 11.3 0.00 0.00 0.00 80 1016.9
20260507051938 16 5 8.0 9.7 0.00 0.00 0.00 80 1016.5
20260507051436 16 357 4.8 4.8 0.00 0.00 0.00 81 1016.9
20260507050932 16 5 9.7 11.3 0.00 0.00 0.00 81 1016.5
20260507050429 16 326 6.4 8.0 0.00 0.00 0.00 81 1016.5
20260507045926 16 349 4.8 8.0 0.00 0.00 0.00 81 1016.5
20260507045422 16 337 4.8 4.8 0.00 0.00 0.00 81 1016.9
20260507044920 16 349 6.4 8.0 0.00 0.00 0.00 81 1016.5
20260507044416 16 27 4.8 4.8 0.00 0.00 0.00 81 1016.2
20260507043912 16 39 1.6 3.2 0.00 0.00 0.00 81 1016.9
20260507043409 17 45 3.2 3.2 0.00 0.00 0.00 81 1016.9
20260507042905 17 10 3.2 4.8 0.00 0.00 0.00 81 1016.9
20260507042402 17 11 3.2 3.2 0.00 0.00 0.00 81 1016.5
20260507041857 17 12 3.2 4.8 0.00 0.00 0.00 81 1016.5
20260507041355 17 20 4.8 8.0 0.00 0.00 0.00 81 1016.5
20260507040852 17 10 4.8 9.7 0.00 0.00 0.00 81 1016.5
20260507040348 17 7 4.8 4.8 0.00 0.00 0.00 81 1016.5
20260507035844 17 6 4.8 8.0 0.00 0.00 0.00 81 1016.2
20260507035340 17 346 8.0 9.7 0.00 0.00 0.00 81 1016.9
20260507034837 17 346 3.2 3.2 0.00 0.00 0.00 81 1016.9
20260507034334 17 10 8.0 9.7 0.00 0.00 0.00 81 1016.5
20260507033832 17 349 4.8 8.0 0.00 0.00 0.00 81 1016.2
20260507033330 17 8 6.4 8.0 0.00 0.00 0.00 81 1016.2
20260507032826 17 338 8.0 9.7 0.00 0.00 0.00 81 1015.8
20260507032322 17 342 9.7 12.9 0.00 0.00 0.00 81 1016.5
20260507031819 17 347 6.4 9.7 0.00 0.00 0.00 81 1016.5
20260507031316 17 352 6.4 8.0 0.00 0.00 0.00 81 1016.5
20260507030812 17 0 6.4 8.0 0.00 0.00 0.00 81 1016.2
20260507030310 17 352 4.8 4.8 0.00 0.00 0.00 81 1016.2
20260507025807 17 25 6.4 9.7 0.00 0.00 0.00 80 1016.2
20260507025306 17 39 3.2 3.2 0.00 0.00 0.00 80 1015.8
20260507024802 17 350 4.8 8.0 0.00 0.00 0.00 80 1015.5
20260507024259 17 28 6.4 9.7 0.00 0.00 0.00 80 1015.5
20260507023755 17 0 9.7 11.3 0.00 0.00 0.00 80 1016.2
20260507023252 17 9 4.8 8.0 0.00 0.00 0.00 80 1016.2
20260507022749 17 337 6.4 9.7 0.00 0.00 0.00 80 1016.2
20260507022245 17 12 4.8 4.8 0.00 0.00 0.00 80 1015.5
20260507021741 17 44 4.8 4.8 0.00 0.00 0.00 80 1015.5
20260507021237 17 352 6.4 8.0 0.00 0.00 0.00 80 1015.5
20260507020735 17 335 4.8 8.0 0.00 0.00 0.00 80 1015.5
20260507020232 17 309 4.8 4.8 0.00 0.00 0.00 80 1015.5
20260507015729 17 2 0.0 1.6 0.00 0.00 0.00 80 1015.2
20260507015226 17 333 4.8 4.8 0.00 0.00 0.00 80 1015.2
20260507014723 17 330 3.2 3.2 0.00 0.00 0.00 80 1015.2
20260507014219 17 50 1.6 3.2 0.00 0.00 0.00 79 1014.8
20260507013716 17 34 0.0 1.6 0.00 0.00 0.00 79 1014.8
20260507013214 17 48 4.8 4.8 0.00 0.00 0.00 79 1014.8
20260507012711 17 341 3.2 3.2 0.00 0.00 0.00 79 1015.2
20260507012206 17 319 3.2 3.2 0.00 0.00 0.00 79 1014.8
20260507011704 17 330 3.2 3.2 0.00 0.00 0.00 79 1014.5
20260507011200 17 4 4.8 8.0 0.00 0.00 0.00 79 1014.5
20260507010700 17 331 3.2 4.8 0.00 0.00 0.00 79 1014.5
20260507010156 17 9 4.8 4.8 0.00 0.00 0.00 79 1014.5
20260507005654 17 356 4.8 8.0 0.00 0.00 0.00 79 1014.5
20260507005154 17 280 4.8 4.8 0.00 0.00 0.00 79 1014.1
20260507004651 17 11 8.0 9.7 0.00 0.00 0.00 79 1013.8
20260507004149 17 337 4.8 4.8 0.00 0.00 0.00 79 1013.8
20260507003646 17 349 8.0 9.7 0.00 0.00 0.00 79 1014.1
20260507003145 17 359 4.8 8.0 0.00 0.00 0.00 79 1014.1
20260507002642 17 9 6.4 8.0 0.00 0.00 0.00 79 1014.5
20260507002138 17 358 6.4 9.7 0.00 0.00 0.00 79 1014.1
20260507001635 17 355 8.0 11.3 0.00 0.00 0.00 79 1014.1
20260507001132 17 25 4.8 4.8 0.00 0.00 0.00 79 1013.8
20260507000629 17 334 6.4 8.0 0.00 0.00 0.00 78 1014.1
20260507000124 17 356 8.0 9.7 0.00 0.00 0.00 78 1013.8
20260506235622 17 25 6.4 8.0 0.00 0.00 0.00 78 1013.8
20260506235122 17 37 6.4 9.7 0.00 0.00 0.00 78 1014.1
20260506234619 17 348 4.8 8.0 0.00 0.00 0.00 78 1013.8
20260506234116 17 17 4.8 8.0 0.00 0.00 0.00 78 1013.8
20260506233613 17 347 4.8 8.0 0.00 0.00 0.00 78 1013.8
20260506233110 17 325 4.8 8.0 0.00 0.00 0.00 78 1013.8
20260506232606 17 313 6.4 8.0 0.00 0.00 0.00 78 1013.8
20260506232102 17 7 8.0 11.3 0.00 0.00 0.00 78 1013.5
20260506231559 18 353 6.4 8.0 0.00 0.00 0.00 77 1013.8
20260506231058 18 346 6.4 8.0 0.00 0.00 0.00 77 1013.8
20260506230554 17 41 9.7 12.9 0.00 0.00 0.00 77 1013.5
20260506230051 18 209 6.4 11.3 0.00 0.00 0.00 77 1013.8